Weather reports worldwide

Advertisment
Arkona, Germany (10091): temperature & dewpoint: 10.01.2018 08:00:00 - 16.01.2018 08:00:00 (CET)Arkona, Germany (10091): temperature 5cm & temperature -5cm: 10.01.2018 08:00:00 - 16.01.2018 08:00:00 (CET)Arkona, Germany (10091): temperature -20cm & temperature -100cm: 10.01.2018 08:00:00 - 16.01.2018 08:00:00 (CET)Arkona, Germany (10091): water temperature: 10.01.2018 08:00:00 - 16.01.2018 08:00:00 (CET)Arkona, Germany (10091): wind speed & gusts: 10.01.2018 08:00:00 - 16.01.2018 08:00:00 (CET)Arkona, Germany (10091): wind direction: 10.01.2018 08:00:00 - 16.01.2018 08:00:00 (CET)Arkona, Germany (10091): reduced air pressure: 10.01.2018 08:00:00 - 16.01.2018 08:00:00 (CET)Arkona, Germany (10091): visibility: 10.01.2018 08:00:00 - 16.01.2018 08:00:00 (CET)Arkona, Germany (10091): sunshine duration: 10.01.2018 08:00:00 - 16.01.2018 08:00:00 (CET)Arkona, Germany (10091): precipitation: 10.01.2018 08:00:00 - 16.01.2018 08:00:00 (CET)
Date & Time tt [°C] td [°C] tt 5cm [°C] tt -5cm [°C] tt -20cm [°C] tt -100cm [°C] tw [°C] ff [km/h] ff [kn] fx [km/h] fx [kn] dd ppp [hPa] vv [km] sd [min] rr [mm]
16.01.2018 08:00:00 1,3 1,0 1,0 -0,1 0,7 5,1 4,9 35 19 54 29 SSW 987,2 13 0 0,0
16.01.2018 07:00:00 0,9 0,9 0,4 -0,1 0,7 5,1 4,9 41 22 64 35 SSW 987,4 15 0 0,0
16.01.2018 06:00:00 0,5 0,5 0,0 -0,1 0,7 5,1 4,9 51 27 70 38 S 987,6 2,5 0 0,4
16.01.2018 05:00:00 0,0 -0,1 0,0 -0,1 0,7 5,1 4,9 52 28 79 42 S 988,3 0,8 0 0,2
16.01.2018 04:00:00 0,7 -0,4 0,3 -0,1 0,7 5,1 4,9 53 29 76 41 S 989,3 5 0 0,0
16.01.2018 03:00:00 0,1 -0,7 0,1 -0,2 0,7 5,1 4,9 50 27 75 41 S 990,8 2,3 0 0,0
16.01.2018 02:00:00 0,9 -1,5 0,7 -0,2 0,7 5,1 4,8 46 25 71 39 S 992,4 6 0 0,0
16.01.2018 01:00:00 1,4 -2,5 1,1 -0,2 0,7 5,1 4,9 37 20 71 38 S 994,1 13 0 0,0
16.01.2018 00:00:00 1,1 -2,3 0,8 -0,2 0,7 5,1 4,9 39 21 71 38 S 995,9 11 0 0,0
15.01.2018 23:00:00 1,1 -2,3 0,9 -0,3 0,7 5,1 4,9 40 22 61 33 S 997,5 12 0 0,0
15.01.2018 22:00:00 1,0 -2,5 0,6 -0,3 0,7 5,1 4,9 41 22 66 35 S 999,1 11 0 0,0
15.01.2018 21:00:00 0,9 -2,6 0,7 -0,3 0,7 5,1 4,9 46 25 68 37 S 1000,7 11 0 0,0
15.01.2018 20:00:00 0,9 -2,7 0,7 -0,3 0,7 5,1 4,8 45 24 65 35 S 1002,4 11 0 0,0
15.01.2018 19:00:00 1,0 -2,5 0,5 -0,4 0,7 5,2 4,8 40 21 64 35 S 1003,7 12 0 0,0
15.01.2018 18:00:00 1,0 -2,8 0,4 -0,3 0,7 5,2 4,9 41 22 63 34 S 1005,5 11 0 0,0
15.01.2018 17:00:00 1,0 -2,6 0,8 -0,2 0,7 5,2 4,9 38 21 61 33 S 1007,1 10 0 0,0
15.01.2018 16:00:00 0,7 -2,8 0,5 -0,2 0,7 5,2 4,9 36 19 63 34 S 1008,4 9 0 0,0
15.01.2018 15:00:00 0,3 -3,3 0,1 -0,3 0,7 5,2 4,8 34 18 55 30 S 1009,6 8 28 0,0
15.01.2018 14:00:00 0,0 -3,5 0,3 -0,3 0,7 5,2 4,8 37 20 59 32 S 1011,2 8 60 0,0
15.01.2018 13:00:00 -0,4 -3,8 0,3 -0,4 0,7 5,2 4,8 39 21 63 34 S 1013,0 10 60 0,0
15.01.2018 12:00:00 -0,7 -4,1 -0,1 -0,5 0,7 5,2 4,8 39 21 60 32 S 1014,8 6 58 0,0
15.01.2018 11:00:00 -0,6 -3,7 -0,3 -0,7 0,7 5,2 4,8 38 20 57 31 SSE 1016,6 7 14 0,0
15.01.2018 10:00:00 -1,3 -4,2 -1,3 -0,9 0,7 5,2 4,8 34 19 55 30 S 1018,0 9 0 0,0
15.01.2018 09:00:00 -1,9 -4,6 -1,9 -1,0 0,8 5,2 4,8 37 20 52 28 SSE 1019,3 7 0 0,0
15.01.2018 08:00:00 -2,0 -4,5 -2,1 -1,1 0,8 5,2 4,8 34 19 50 27 SSE 1020,2 7 0 0,0
15.01.2018 07:00:00 -2,0 -4,9 -2,1 -1,2 0,8 5,2 4,8 34 18 53 29 SSE 1021,1 8 0 0,0
15.01.2018 06:00:00 -1,9 -4,6 -2,2 -1,5 0,9 5,2 4,8 33 18 52 28 S 1022,0 7 0 0,0
15.01.2018 05:00:00 -2,1 -4,6 -2,8 -1,5 0,9 5,2 4,8 32 17 51 28 S 1022,7 7 0 0,0
15.01.2018 04:00:00 -2,2 -4,6 -2,9 -1,4 0,9 5,2 4,8 31 17 50 27 SSE 1023,9 6 0 0,0
15.01.2018 03:00:00 -2,1 -4,9 -2,8 -1,3 1,0 5,2 4,8 30 16 47 25 S 1024,9 7 0 0,0
15.01.2018 02:00:00 -1,9 -4,8 -2,7 -1,2 1,0 5,3 4,8 31 17 50 27 S 1025,6 7 0 0,0
15.01.2018 01:00:00 -2,0 -5,2 -2,8 -1,1 1,0 5,3 4,7 27 14 44 24 S 1026,6 8 0 0,0
15.01.2018 00:00:00 -1,9 -5,4 -2,6 -0,9 1,0 5,3 4,7 27 15 44 24 S 1027,2 9 0 0,0
14.01.2018 23:00:00 -2,1 -5,7 -2,3 -0,7 1,1 5,3 4,7 25 14 44 24 S 1027,9 10 0 0,0
14.01.2018 22:00:00 -2,3 -6,0 -2,4 -0,7 1,1 5,3 4,8 27 14 47 26 S 1028,4 11 0 0,0
14.01.2018 21:00:00 -2,4 -6,1 -3,0 -0,5 1,1 5,3 4,8 26 14 45 24 S 1028,4 12 0 0,0
14.01.2018 20:00:00 -2,3 -6,3 -2,4 -0,4 1,2 5,3 4,8 24 13 42 23 S 1028,9 8 0 0,0
14.01.2018 19:00:00 -2,3 -6,4 -2,3 -0,3 1,2 5,3 4,8 27 14 42 23 S 1029,6 6 0 0,0
14.01.2018 18:00:00 -2,3 -6,3 -2,3 -0,3 1,2 5,3 4,8 24 13 49 26 SSE 1029,8 7 0 0,0
14.01.2018 17:00:00 -2,3 -6,2 -2,2 -0,2 1,2 5,3 4,8 32 17 45 24 SE 1030,2 11 0 0,0
14.01.2018 16:00:00 -2,4 -6,5 -2,4 -0,1 1,2 5,3 4,8 27 15 45 24 SSE 1030,6 13 0 0,0
14.01.2018 15:00:00 -1,9 -5,7 -1,9 0,0 1,3 5,3 4,8 15 8 39 21 E 1030,7 13 0 0,0
14.01.2018 14:00:00 -1,8 -6,1 -1,6 0,0 1,3 5,3 4,8 28 15 40 21 SE 1031,1 13 0 0,0
14.01.2018 13:00:00 -1,6 -6,1 -1,3 0,0 1,3 5,3 4,7 24 13 37 20 SE 1031,6 15 0 0,0
14.01.2018 12:00:00 -1,3 -5,5 -1,2 0,0 1,3 5,3 4,8 25 13 40 22 SE 1031,9 15 0 0,0
14.01.2018 11:00:00 -1,1 -5,9 -1,0 0,0 1,3 5,3 4,9 24 13 39 21 SSE 1032,5 17 0 0,0
14.01.2018 10:00:00 -0,7 -4,7 -0,8 0,1 1,3 5,3 4,9 25 14 39 21 ESE 1032,5 13 0 0,0
14.01.2018 09:00:00 -0,8 -5,1 -0,9 0,1 1,4 5,3 4,9 21 12 39 21 SE 1032,5 14 0 0,0
14.01.2018 08:00:00 -0,6 -4,8 -0,7 0,1 1,4 5,3 4,9 29 16 41 22 SE 1032,3 13 0 0,0
14.01.2018 07:00:00 -0,6 -5,1 -0,8 0,1 1,4 5,3 4,9 25 13 44 24 SE 1032,6 14 0 0,0
14.01.2018 06:00:00 -0,4 -5,0 -0,6 0,1 1,4 5,3 4,9 24 13 45 25 SE 1032,6 15 0 0,0
14.01.2018 05:00:00 -0,4 -5,3 -0,6 0,2 1,5 5,3 5,0 29 16 41 22 SSE 1032,8 16 0 0,0
14.01.2018 04:00:00 -0,4 -5,6 -0,6 0,2 1,5 5,3 5,0 29 15 46 25 SE 1032,9 17 0 0,0
14.01.2018 03:00:00 -0,1 -5,0 -0,3 0,2 1,5 5,3 5,0 28 15 42 23 SE 1033,2 15 0 0,0
14.01.2018 02:00:00 0,0 -5,0 -0,2 0,2 1,5 5,4 5,0 23 13 45 24 SE 1033,3 15 0 0,0
14.01.2018 01:00:00 -0,2 -5,5 -0,4 0,2 1,5 5,4 5,0 27 14 46 25 SSE 1033,5 18 0 0,0
14.01.2018 00:00:00 0,0 -4,5 -0,1 0,2 1,6 5,4 5,0 35 19 53 28 SE 1034,0 15 0 0,0
13.01.2018 23:00:00 -0,1 -5,0 -0,3 0,2 1,6 5,4 5,0 31 17 54 29 SSE 1034,3 18 0 0,0
13.01.2018 22:00:00 0,0 -5,3 -0,2 0,3 1,6 5,4 5,0 31 17 53 28 SE 1034,3 26 0 0,0
13.01.2018 21:00:00 0,6 -4,6 0,3 0,3 1,7 5,4 5,0 29 16 51 28 SE 1034,5 27 0 0,0
13.01.2018 20:00:00 0,4 -5,0 0,1 0,3 1,7 5,4 5,0 32 17 46 25 SE 1034,7 29 0 0,0
13.01.2018 19:00:00 0,0 -5,5 -0,2 0,3 1,8 5,4 5,0 28 15 45 24 SSE 1035,0 23 0 0,0
13.01.2018 18:00:00 -0,7 -5,6 -0,8 0,3 1,8 5,4 5,0 29 16 49 26 SE 1034,9 26 0 0,0
13.01.2018 17:00:00 -0,8 -5,5 -0,8 0,3 1,9 5,4 5,1 37 20 49 26 SE 1035,0 22 0 0,0
13.01.2018 16:00:00 -0,2 -4,3 -0,3 0,2 2,0 5,4 5,1 25 14 45 24 ESE 1034,7 22 0 0,0
13.01.2018 15:00:00 0,2 -4,0 0,1 0,6 2,0 5,4 5,1 27 15 45 25 SE 1034,7 27 0 0,0
13.01.2018 14:00:00 0,1 -3,7 0,2 1,0 2,0 5,4 5,1 29 16 41 22 SSE 1034,9 25 0 0,0
13.01.2018 13:00:00 0,3 -3,8 0,6 1,1 2,0 5,4 5,1 27 15 40 22 SSE 1035,1 21 0 0,0
13.01.2018 12:00:00 0,5 -2,5 0,6 1,1 2,0 5,4 5,1 26 14 44 24 SE 1035,3 12 0 0,0
13.01.2018 11:00:00 0,6 -1,8 0,7 0,9 2,0 5,4 5,1 29 15 45 24 ESE 1035,5 9 0 0,0
13.01.2018 10:00:00 0,6 -1,8 0,6 0,7 2,1 5,4 5,1 31 17 44 24 SE 1035,3 8 0 0,0
13.01.2018 09:00:00 0,5 -1,8 0,4 0,7 2,1 5,4 5,1 29 16 42 23 SE 1035,0 8 0 0,0
13.01.2018 08:00:00 0,5 -1,5 0,5 0,7 2,2 5,4 5,1 30 16 42 23 SE 1034,8 7 0 0,0
13.01.2018 07:00:00 0,5 -1,5 0,5 0,8 2,2 5,4 5,1 34 18 45 25 SE 1034,7 6 0 0,0
13.01.2018 06:00:00 0,7 -1,2 0,6 0,9 2,3 5,4 5,1 30 16 44 24 ESE 1034,6 6 0 0,0
13.01.2018 05:00:00 0,7 -0,8 0,7 1,0 2,4 5,4 5,1 22 12 44 24 E 1034,7 6 0 0,0
13.01.2018 04:00:00 0,7 -0,8 0,7 1,1 2,4 5,4 5,1 27 15 42 23 ESE 1034,7 4,9 0 0,0
13.01.2018 03:00:00 0,7 -0,9 0,7 1,2 2,5 5,4 5,1 27 15 42 23 ESE 1034,8 7 0 0,0
13.01.2018 02:00:00 0,9 -0,1 0,8 1,3 2,5 5,4 5,1 14 8 39 21 E 1034,5 4,8 0 0,0
13.01.2018 01:00:00 0,7 -0,7 0,7 1,4 2,6 5,4 5,1 21 11 43 23 E 1034,4 8 0 0,0
13.01.2018 00:00:00 1,1 -0,3 1,1 1,6 2,6 5,4 5,1 26 14 44 24 ESE 1034,4 8 0 0,0
12.01.2018 23:00:00 1,4 0,1 1,3 1,7 2,7 5,4 5,1 12 7 39 21 E 1034,1 8 0 0,0
12.01.2018 22:00:00 1,8 0,4 1,6 1,8 2,7 5,4 5,2 12 6 48 26 ENE 1033,8 10 0 0,0
12.01.2018 21:00:00 2,0 0,4 1,9 1,9 2,8 5,4 5,1 14 7 44 24 E 1033,9 12 0 0,0
12.01.2018 20:00:00 2,3 0,6 2,1 2,0 2,8 5,4 5,1 16 9 45 24 E 1033,5 13 0 0,0
12.01.2018 19:00:00 2,5 0,6 2,2 2,0 2,9 5,4 5,2 16 8 54 29 E 1032,9 21 0 0,0
12.01.2018 18:00:00 2,6 0,8 2,2 2,1 2,9 5,4 5,2 18 10 56 31 E 1032,7 22 0 0,0
12.01.2018 17:00:00 2,7 1,1 2,2 2,4 2,9 5,4 5,2 33 18 59 32 E 1032,2 20 0 0,0
12.01.2018 16:00:00 2,9 1,3 2,7 2,8 2,9 5,4 5,1 30 16 55 30 E 1032,2 21 0 0,0
12.01.2018 15:00:00 3,0 1,2 3,0 3,0 2,8 5,4 5,1 29 16 50 27 E 1032,1 24 0 0,0
12.01.2018 14:00:00 3,3 1,5 3,3 3,2 2,7 5,4 5,1 16 9 49 26 E 1031,8 19 0 0,0
12.01.2018 13:00:00 3,4 1,4 3,5 3,1 2,6 5,4 5,1 21 12 46 25 E 1031,4 24 0 0,0
12.01.2018 12:00:00 3,6 0,3 3,7 2,6 2,5 5,4 5,1 11 6 46 25 ESE 1031,5 38 0 0,0
12.01.2018 11:00:00 3,5 -0,7 3,2 2,0 2,5 5,4 5,3 14 7 44 24 E 1031,3 54 0 0,0
12.01.2018 10:00:00 3,2 -0,6 2,9 1,7 2,5 5,4 5,2 11 6 45 25 E 1030,8 39 0 0,0
12.01.2018 09:00:00 2,6 -1,2 2,3 1,5 2,5 5,4 5,2 13 7 47 26 E 1030,4 34 0 0,0
12.01.2018 08:00:00 2,1 -0,9 1,9 1,5 2,6 5,4 5,2 14 7 52 28 E 1029,8 19 0 0,0
12.01.2018 07:00:00 2,0 -0,6 1,8 1,6 2,6 5,4 5,2 17 9 47 25 E 1028,8 16 0 0,0
12.01.2018 06:00:00 1,5 -0,8 1,3 1,6 2,7 5,4 5,1 15 8 53 28 E 1028,6 16 0 0,0
12.01.2018 05:00:00 1,6 -0,1 1,5 1,8 2,7 5,4 5,1 13 7 46 25 E 1028,2 12 0 0,0
12.01.2018 04:00:00 1,5 0,6 1,4 1,9 2,8 5,4 5,2 26 14 47 26 E 1027,5 7 0 0,0
12.01.2018 03:00:00 1,8 0,8 1,7 2,0 2,8 5,4 5,2 24 13 44 24 E 1027,1 6 0 0,0
12.01.2018 02:00:00 1,9 1,0 1,8 2,1 2,8 5,4 5,2 13 7 38 21 E 1026,5 5 0 0,0
12.01.2018 01:00:00 1,9 1,0 1,8 2,1 2,9 5,4 5,2 16 9 39 21 E 1026,0 4,9 0 0,0
12.01.2018 00:00:00 1,9 1,0 1,9 2,2 2,9 5,4 5,2 14 8 42 23 E 1025,4 3,6 0 0,0
11.01.2018 23:00:00 2,2 1,3 2,0 2,3 2,9 5,4 5,2 16 9 41 22 E 1024,7 3,1 0 0,0
11.01.2018 22:00:00 2,4 1,4 2,2 2,4 3,0 5,4 5,2 12 6 36 20 E 1024,0 3,2 0 0,0
11.01.2018 21:00:00 2,5 1,3 2,2 2,4 3,0 5,4 5,2 13 7 37 20 E 1023,4 3,8 0 0,0
11.01.2018 20:00:00 2,5 1,2 2,1 2,4 3,0 5,4 5,2 9 5 33 18 E 1022,7 3,9 0 0,0
11.01.2018 19:00:00 2,5 1,3 2,1 2,5 3,1 5,4 5,2 10 5 33 18 ENE 1021,7 3,8 0 0,1
11.01.2018 18:00:00 2,5 1,2 2,2 2,6 3,1 5,4 5,2 8 5 34 18 E 1021,2 3,2 0 0,1
11.01.2018 17:00:00 2,5 1,2 2,2 2,7 3,1 5,4 5,2 9 5 30 16 ENE 1020,6 4,1 0 0,0
11.01.2018 16:00:00 2,7 1,5 2,6 2,9 3,2 5,4 5,2 9 5 26 14 ENE 1019,8 4,2 0 0,0
11.01.2018 15:00:00 2,9 1,9 2,8 3,1 3,1 5,4 5,2 9 5 39 21 E 1019,2 3,7 0 0,0
11.01.2018 14:00:00 3,3 2,0 3,2 3,3 3,1 5,4 5,2 15 8 42 23 E 1018,7 4,6 0 0,0
11.01.2018 13:00:00 3,3 2,0 3,3 3,4 3,1 5,4 5,2 21 12 41 22 E 1018,3 4,9 0 0,0
11.01.2018 12:00:00 3,2 2,0 3,2 3,3 3,0 5,4 5,2 29 15 39 21 E 1018,1 4,4 0 0,0
11.01.2018 11:00:00 3,4 2,6 3,3 3,3 3,0 5,4 5,2 29 16 40 22 E 1018,0 3,9 0 0,0
11.01.2018 10:00:00 3,8 3,7 3,7 3,3 2,9 5,4 5,2 27 15 34 19 E 1017,5 2,1 0 0,0
11.01.2018 09:00:00 4,0 4,0 3,8 3,2 2,9 5,4 5,2 22 12 29 16 E 1017,0 2,0 0 0,5
11.01.2018 08:00:00 3,9 3,9 3,7 3,1 2,8 5,4 5,2 17 9 29 15 E 1016,6 2,8 0 0,6
11.01.2018 07:00:00 4,0 3,8 3,8 3,0 2,8 5,4 5,2 13 7 31 17 E 1016,2 2,9 0 0,5
11.01.2018 06:00:00 3,6 3,3 3,4 2,8 2,7 5,4 5,2 9 5 23 12 E 1015,7 1,6 0 0,3
11.01.2018 05:00:00 3,6 3,1 3,4 2,8 2,7 5,4 5,2 6 3 25 14 E 1015,8 2,9 0 0,0
11.01.2018 04:00:00 3,5 2,8 3,4 2,7 2,6 5,4 5,2 11 6 27 14 E 1015,8 3,1 0 0,0
11.01.2018 03:00:00 3,5 2,6 3,4 2,7 2,6 5,4 5,3 8 5 23 12 E 1015,7 3,3 0 0,0
11.01.2018 02:00:00 3,5 2,6 3,3 2,6 2,6 5,4 5,2 5 3 21 12 ENE 1015,4 3,9 0 0,0
11.01.2018 01:00:00 3,6 2,5 3,4 2,5 2,5 5,4 5,2 6 3 21 12 E 1015,2 3,7 0 0,0
11.01.2018 00:00:00 3,4 2,4 3,0 2,5 2,5 5,4 5,2 6 3 16 9 ESE 1015,2 3,6 0 0,0
10.01.2018 23:00:00 3,5 2,2 3,2 2,4 2,5 5,4 5,2 7 4 12 7 SSE 1015,2 3,4 0 0,0
10.01.2018 22:00:00 3,4 2,2 3,2 2,4 2,5 5,5 5,2 12 6 17 9 SE 1014,7 4,1 0 0,0
10.01.2018 21:00:00 3,5 2,2 3,1 2,4 2,5 5,5 5,2 10 5 22 12 SE 1014,6 4,4 0 0,0
10.01.2018 20:00:00 3,4 2,0 3,1 2,5 2,5 5,5 5,2 18 10 23 12 SSE 1014,5 4,6 0 0,0
10.01.2018 19:00:00 3,5 2,5 3,3 2,5 2,4 5,5 5,2 10 6 20 11 SSE 1014,4 3,8 0 0,0
10.01.2018 18:00:00 3,2 2,1 2,9 2,4 2,4 5,5 5,3 15 8 23 12 SSE 1014,2 3,9 0 0,0
10.01.2018 17:00:00 3,4 2,2 3,1 2,6 2,3 5,5 5,3 21 11 40 22 SE 1014,0 3,8 0 0,0
10.01.2018 16:00:00 3,2 2,6 3,1 2,8 2,3 5,5 5,3 32 17 39 21 SE 1014,0 2,8 0 0,0
10.01.2018 15:00:00 3,1 3,1 3,1 2,8 2,2 5,5 5,3 11 6 24 13 E 1013,7 0,8 0 0,0
10.01.2018 14:00:00 2,5 2,5 2,6 2,7 2,0 5,5 5,4 14 8 29 16 SSE 1014,0 0,1 0 0,0
10.01.2018 13:00:00 2,3 2,3 2,4 2,6 1,9 5,5 5,4 20 11 30 16 S 1013,9 0,3 0 0,0
10.01.2018 12:00:00 2,7 2,7 2,7 2,5 1,8 5,5 5,3 16 8 30 16 S 1014,2 1,0 0 0,0
10.01.2018 11:00:00 3,0 2,3 2,9 2,2 1,7 5,5 5,3 16 9 31 17 S 1013,9 2,9 0 0,0
10.01.2018 10:00:00 2,9 2,1 2,6 1,9 1,6 5,6 5,3 24 13 32 17 SSE 1014,2 3,8 0 0,0
10.01.2018 09:00:00 2,6 1,8 2,2 1,6 1,5 5,6 5,3 21 11 31 17 SSE 1013,9 3,4 0 0,1
10.01.2018 08:00:00 2,6 2,0 2,3 1,5 1,4 5,6 5,3 22 12 35 19 SSE 1013,3 3,2 0 0,3

tt = temperature
td = dewpoint
tt 5cm = temperature 5cm
tt -5cm = temperature -5cm
tt -20cm = temperature -20cm
tt -100cm = temperature -100cm
tw = water temperature
ff = wind speed
fx = gusts
dd = wind direction
ppp = reduced air pressure
vv = visibility
sd = sunshine duration
rr = precipitation

Next stations